Temperature
22 21 21 21 20 20 19 19 19 19 18 18 18 18 18 18 18 18 18 18 17 17 17 17 17 17 17 17 17 17 17 17 17 17 17 17 17 17 17 17 16 16 16
21 21 21 21 20 20 19 19 19 19 18 18 18 18 18 18 18 18 18 17 17 17 17 17 17 17 17 17 17 17 17 17 17 17 17 17 17 17 17 17 17 17 16
21 21 21 21 20 20 19 19 19 19 18 18 18 17 17 17 17 17 17 17 17 17 17 17 17 17 17 17 17 17 17 17 17 17 17 17 17 17 17 17 17 17 17
22 21 21 21 20 20 19 19 19 18 18 18 18 18 17 17 18 18 17 17 17 17 17 17 17 17 17 17 17 17 17 17 17 17 17 17 17 17 17 17 17 17 17
22 22 21 21 20 20 19 19 18 18 18 18 18 18 18 18 18 17 17 17 17 17 17 17 17 17 17 17 17 17 17 17 17 17 17 17 17 17 17 17 17 17 17
22 21 21 20 20 19 19 18 18 18 18 17 17 18 18 17 17 17 17 17 17 17 17 17 17 17 17 17 17 17 17 17 17 17 17 17 17 17 17 17 17 17 17
21 21 20 20 20 19 19 18 18 18 17 17 17 17 17 18 18 17 17 17 17 17 17 17 17 17 17 17 17 17 17 17 17 17 17 17 17 17 17 17 17 17 17
21 21 21 20 20 19 19 18 18 18 17 17 17 17 17 17 17 17 17 17 17 17 17 17 17 17 17 17 17 17 17 17 17 17 17 17 17 17 17 17 17 17 17
21 20 20 20 20 19 19 18 18 18 18 18 17 17 17 17 17 17 17 17 17 17 17 17 17 17 17 17 17 17 16 17 17 17 17 17 17 17 17 17 17 17 17
20 20 20 20 19 19 19 18 18 18 18 18 17 17 17 17 17 17 17 17 17 17 17 17 17 17 17 17 17 16 16 16 16 16 16 17 17 17 17 16 16 16 16
20 20 20 20 19 19 18 18 18 18 18 17 17 17 17 17 17 17 17 17 17 17 17 17 17 17 17 17 16 16 16 16 16 16 16 16 16 16 16 16 16 16 16
20 20 20 19 19 18 18 18 18 18 18 17 17 17 17 17 17 17 17 17 17 17 17 17 17 17 17 17 16 16 16 16 16 16 16 16 16 16 16 16 16 16 16
19 19 19 19 18 18 18 18 18 18 17 17 17 17 17 17 17 17 17 17 17 17 17 17 17 16 16 16 16 16 16 16 16 16 16 16 16 16 16 16 16 16 16
19 19 19 18 18 18 18 18 18 18 17 17 17 17 17 17 17 17 17 17 17 16 16 16 16 16 16 16 16 16 16 16 16 16 16 16 16 16 16 16 16 16 15
18 18 18 18 18 18 18 18 17 17 17 17 17 17 17 17 17 17 17 17 17 16 16 16 16 16 16 16 16 16 16 16 16 16 16 15 15 15 15 15 15 15 15
18 18 18 18 18 17 18 18 17 17 17 17 17 17 17 17 17 17 16 16 16 16 16 16 16 16 16 16 16 16 16 16 16 15 15 15 15 15 15 15 15 15 15
18 18 18 18 18 18 18 18 17 17 17 17 17 17 17 17 16 16 16 16 16 16 16 16 16 16 16 16 15 15 15 15 15 15 15 15 15 15 15 14 14 14 14
18 18 18 18 18 18 17 17 17 17 17 16 16 16 16 16 16 16 16 16 16 16 16 15 15 15 15 15 15 15 15 15 15 14 14 14 14 14 14 14 14 14 14
18 18 17 17 17 17 17 17 16 16 16 16 16 16 16 16 16 16 16 16 15 15 15 15 15 15 15 15 15 14 14 14 14 14 14 14 13 13 13 13 13 13 13
17 17 17 17 17 16 16 16 16 16 16 16 16 16 16 16 16 15 15 15 15 15 15 15 14 14 14 14 14 14 14 14 13 13 13 13 13 13 13 13 12 12 12
16 16 16 16 16 16 16 16 16 16 15 15 15 15 15 15 15 15 15 15 15 14 14 14 14 14 13 13 13 13 13 13 13 13 12 12 12 12 12 12 12 12 11
16 16 16 15 15 16 16 16 15 15 15 15 15 15 15 15 15 15 14 14 14 14 14 13 13 13 13 13 13 12 12 12 12 12 12 11 11 11 11 11 11 11 11
14 15 15 15 14 15 15 15 15 15 15 15 15 15 15 14 14 14 14 14 13 13 13 13 12 12 12 12 12 12 12 11 11 11 11 11 11 11 11 10 10 10 10
13 13 14 14 14 14 14 14 14 15 15 14 14 14 14 14 14 14 13 13 13 13 12 12 12 11 11 11 11 11 11 11 11 10 10 10 10 10 10 9 9 9 9
12 13 13 13 13 13 13 13 14 14 14 14 13 13 13 13 13 13 12 12 12 12 12 11 11 11 10 10 10 10 10 10 9 9 9 9 9 9 9 9 8 8 8
11 12 12 12 12 12 12 12 13 13 13 13 13 13 12 12 12 12 11 11 11 11 10 10 10 10 9 9 9 9 9 9 8 8 8 8 8 8 8 7 7 7 7
Wind_Speed
10 11 12 12 11 11 13 13 13 12 11 8 7 6 6 7 6 5 9 11 11 11 8 5 5 4 5 4 4 3 2 1 2 3 2 3 1 2 3 4 5 7 12
8 10 11 12 12 12 12 12 13 13 12 10 8 5 5 5 6 5 7 10 10 11 9 6 5 5 4 4 4 3 2 1 2 3 3 2 3 3 2 3 4 5 7
14 13 13 12 12 12 13 13 12 12 11 10 7 6 4 4 4 5 6 7 10 10 9 8 6 5 5 5 4 4 4 2 1 2 4 3 3 2 3 3 3 4 4
11 11 12 12 12 11 10 11 12 12 11 11 11 11 8 7 6 6 6 6 8 9 10 9 7 6 5 5 5 4 4 4 2 0 1 3 4 3 1 3 2 3 5
11 12 12 12 10 10 10 9 10 11 11 12 12 11 8 6 5 6 7 7 6 7 9 9 7 6 5 5 5 4 4 3 3 2 1 1 1 2 3 2 3 2 3
9 10 10 9 8 9 9 9 10 10 11 12 12 12 11 10 9 8 9 8 5 5 7 7 6 6 5 5 5 5 5 4 3 3 2 2 2 2 3 3 3 3 4
9 10 11 11 10 10 10 10 11 10 11 12 12 12 12 12 12 10 10 9 6 5 7 7 6 5 5 6 5 5 4 5 4 3 2 2 2 3 3 3 2 2 3
7 10 11 11 11 11 10 10 11 10 11 12 12 11 11 9 8 9 9 9 8 7 8 8 7 6 6 6 5 4 3 4 4 3 3 2 2 2 3 4 3 1 2
7 8 8 9 9 10 10 11 11 10 10 11 11 11 11 10 10 9 8 7 7 7 9 9 8 7 6 6 6 4 4 4 4 3 3 2 2 2 2 3 4 4 2
7 7 7 7 8 8 7 8 9 10 9 10 10 10 10 10 10 9 9 9 8 8 9 8 8 7 7 7 6 4 4 5 4 3 3 3 2 1 1 2 2 3 4
8 7 6 6 6 7 7 7 7 7 8 9 9 8 9 9 9 9 9 9 8 8 9 8 8 8 7 7 6 6 6 6 5 4 4 5 3 2 1 1 1 2 3
7 6 6 6 5 5 6 6 7 7 7 8 8 8 8 8 8 8 8 8 8 8 8 8 8 8 7 7 7 7 6 7 7 6 5 5 4 3 2 2 2 2 3
6 5 5 6 6 6 6 5 6 7 7 7 7 7 8 8 8 8 8 8 8 7 7 7 8 7 7 7 8 7 7 6 6 6 6 5 5 4 3 3 3 3 2
6 5 5 5 6 6 6 5 5 6 7 7 7 7 8 8 7 7 7 7 8 7 7 6 6 6 6 6 6 6 6 6 6 6 6 6 6 6 5 4 4 3 2
6 6 6 5 5 6 6 6 5 5 6 7 7 7 7 7 7 7 6 6 7 7 7 7 5 5 4 4 5 5 5 5 5 4 4 5 6 7 6 5 5 4 3
7 6 6 6 6 6 7 7 6 6 6 7 6 6 6 6 6 6 6 6 5 5 6 6 5 4 3 3 5 5 4 4 4 3 3 3 3 5 7 8 7 6 5
6 6 6 7 7 7 7 7 7 7 7 6 5 6 6 6 6 6 6 6 5 5 5 5 5 4 2 2 3 5 4 3 3 3 2 2 1 2 2 4 5 5 7
6 5 5 5 5 5 6 6 7 8 7 6 5 5 6 6 6 6 5 5 5 5 5 5 5 4 2 1 2 4 3 2 2 2 2 1 1 1 1 1 1 2 3
6 5 5 5 5 6 6 7 6 7 7 6 6 6 6 7 7 6 6 5 6 6 6 5 5 5 3 4 3 4 3 3 2 2 3 2 2 4 2 1 1 2 4
5 6 6 6 5 4 6 8 7 7 6 5 5 5 6 7 7 7 6 6 6 6 7 7 6 6 4 6 5 5 4 4 3 3 4 5 4 5 5 2 1 2 4
7 8 8 7 5 4 7 8 7 6 5 6 6 6 6 6 7 7 6 7 7 8 7 7 6 6 6 7 8 7 4 3 3 3 2 3 5 6 5 3 1 2 3
8 9 9 8 6 5 6 8 6 5 6 7 8 7 7 7 7 8 8 8 9 8 7 7 7 6 6 8 8 9 7 5 4 2 2 2 4 5 5 3 3 4 3
8 8 10 10 8 7 7 8 5 6 9 10 9 9 10 9 8 9 9 8 8 7 7 6 6 5 5 6 10 10 9 9 5 3 4 5 6 6 5 6 7 5 3
8 8 10 11 10 9 9 8 7 9 11 11 10 10 10 10 10 9 8 8 7 8 7 7 6 5 5 6 6 5 5 7 6 5 6 8 9 7 7 6 6 4 3
8 9 11 11 10 10 10 10 9 10 13 12 11 10 10 10 11 11 9 8 7 6 8 6 5 5 5 5 7 6 5 4 4 4 5 6 6 7 6 6 5 5 5
10 10 11 12 11 11 11 10 9 10 12 11 10 9 9 8 9 10 11 15 12 15 14 10 7 5 6 7 10 11 11 10 9 7 6 6 6 5 5 5 5 5 5
Wind_Direction
179 167 164 163 159 158 161 165 163 162 159 158 160 157 164 169 167 170 164 165 162 160 157 154 153 147 148 157 145 132 121 119 118 83 35 355 333 226 212 196 188 202 206
166 165 162 162 165 166 165 166 169 167 167 168 164 162 160 166 163 164 164 171 165 162 165 154 159 155 146 146 145 135 128 129 127 126 104 21 349 328 254 211 199 201 200
173 171 168 170 167 170 171 172 171 171 170 162 150 144 135 132 147 158 170 175 169 167 165 163 156 157 152 159 162 151 145 152 134 148 143 148 212 280 312 254 221 201 197
172 172 171 171 174 175 171 169 172 173 170 162 161 163 168 170 178 168 170 171 170 166 165 162 159 159 158 163 172 160 155 146 151 179 176 168 160 156 271 315 284 230 211
172 172 172 172 173 168 167 168 169 173 172 172 173 170 171 174 166 159 165 172 171 166 164 164 159 163 165 168 168 153 149 148 153 161 152 115 105 126 147 237 288 292 249
163 162 161 156 160 164 165 168 170 176 177 178 178 176 175 172 169 174 174 175 172 173 171 165 163 166 165 167 169 157 149 152 150 150 144 149 152 179 163 194 235 251 267
158 158 156 160 164 169 173 176 179 181 182 183 183 182 181 177 180 180 178 174 173 179 184 176 170 169 170 167 162 153 157 162 160 166 170 174 182 174 163 162 203 244 276
163 168 169 170 172 175 178 180 184 183 181 182 183 181 181 182 186 182 179 181 183 185 181 177 175 174 170 169 160 156 171 171 175 180 174 181 197 173 172 170 159 175 304
168 173 173 170 171 177 182 184 184 183 183 182 179 181 183 184 184 183 183 182 182 183 178 177 176 177 172 170 164 174 188 178 184 190 191 200 220 189 180 169 163 160 203
160 164 167 166 167 170 177 181 185 187 183 178 180 184 182 184 183 179 181 183 184 181 175 177 179 179 178 177 172 178 186 180 194 199 204 219 226 219 173 159 166 169 175
158 163 166 164 163 164 167 173 178 178 179 176 173 175 177 179 180 184 184 182 181 176 178 179 180 182 184 182 181 191 188 192 206 210 207 227 220 219 228 184 164 171 168
150 149 143 137 139 150 162 166 170 169 170 166 164 171 172 173 178 184 181 176 176 176 177 178 181 189 189 187 190 201 201 199 207 214 211 228 221 220 225 215 218 214 198
124 128 133 143 150 149 151 154 160 160 156 153 158 160 162 165 173 178 174 171 170 172 174 174 184 193 193 193 198 202 205 203 206 207 205 218 212 227 230 225 228 234 226
139 142 141 149 154 154 148 151 154 157 156 155 157 159 163 163 168 170 168 169 169 171 175 177 183 190 193 196 201 200 200 204 208 207 205 209 206 218 224 228 230 228 233
154 151 143 136 146 151 149 156 154 154 155 152 157 164 160 158 161 162 163 164 167 174 175 174 182 187 188 200 192 191 194 202 216 220 217 219 219 218 217 218 215 211 220
162 158 149 145 154 159 155 153 152 153 149 151 157 156 155 157 161 162 160 156 157 160 162 166 165 163 182 183 181 181 182 186 200 220 233 244 239 242 234 229 214 199 205
145 156 159 164 165 163 157 153 152 139 132 137 140 138 145 148 155 161 157 162 162 150 147 147 144 141 142 175 187 192 171 177 198 207 218 242 256 236 249 247 239 232 227
129 136 144 151 156 149 144 140 137 134 133 132 139 137 135 137 131 131 139 150 146 139 133 126 122 109 75 88 162 170 155 143 149 158 175 180 317 353 291 260 266 270 267
126 136 138 139 139 141 143 133 136 136 132 134 137 144 142 134 130 130 128 123 117 113 110 108 106 98 56 45 80 121 125 114 87 69 72 83 58 10 15 63 337 326 317
106 111 111 104 103 117 128 129 131 129 135 145 147 145 141 136 133 130 119 109 113 115 106 93 87 86 67 48 64 100 103 101 85 56 49 57 54 32 37 52 38 337 320
93 97 94 96 96 101 114 121 124 132 142 134 124 116 117 121 121 117 115 114 113 105 97 90 75 68 60 51 63 83 91 105 98 74 38 25 32 33 32 39 33 310 318
80 91 92 84 76 81 101 106 116 127 115 107 102 98 97 103 106 106 105 107 109 102 95 90 75 56 45 46 52 62 69 79 91 73 29 11 18 28 27 24 0 357 8
79 84 91 83 68 62 81 94 87 93 97 93 89 86 83 77 83 96 101 97 98 100 96 90 82 61 43 39 45 51 55 60 67 52 35 33 33 29 27 22 20 26 33
79 82 85 83 70 59 66 76 81 90 95 93 90 87 85 79 71 73 81 90 93 98 96 92 86 70 50 34 27 33 39 44 49 44 37 41 42 42 29 21 24 31 32
82 80 84 82 73 66 65 66 75 90 94 92 91 89 86 86 79 72 64 75 70 95 106 102 99 86 62 30 37 48 43 41 41 44 48 46 40 36 29 24 21 21 21
92 87 82 80 74 70 66 59 65 83 93 91 88 91 94 93 93 92 76 58 69 72 75 81 88 73 74 67 59 56 55 55 59 65 56 45 41 38 30 26 20 19 15
Height
1483 1486 1489 1491 1493 1495 1498 1501 1504 1508 1511 1515 1519 1523 1527 1531 1534 1538 1541 1543 1546 1548 1551 1553 1555 1556 1558 1560 1562 1563 1565 1566 1567 1569 1570 1571 1571 1572 1572 1573 1573 1574 1575
1482 1484 1486 1488 1490 1492 1495 1499 1501 1505 1508 1513 1517 1521 1525 1529 1533 1536 1539 1542 1545 1547 1549 1551 1553 1555 1557 1559 1561 1562 1563 1565 1566 1568 1569 1569 1571 1570 1571 1572 1572 1573 1574
1479 1481 1484 1486 1489 1491 1494 1497 1499 1502 1506 1511 1515 1519 1524 1527 1530 1534 1537 1540 1543 1545 1548 1550 1552 1554 1556 1558 1559 1561 1562 1563 1565 1566 1568 1568 1568 1569 1570 1570 1571 1572 1572
1478 1480 1482 1485 1487 1490 1492 1495 1498 1501 1503 1507 1511 1515 1519 1522 1526 1531 1535 1538 1541 1544 1546 1549 1551 1553 1554 1556 1558 1560 1561 1562 1563 1565 1566 1567 1567 1568 1568 1569 1570 1570 1571
1476 1479 1481 1483 1486 1488 1491 1493 1496 1498 1501 1504 1509 1513 1517 1521 1525 1530 1533 1536 1539 1542 1545 1547 1549 1551 1553 1555 1556 1558 1559 1561 1562 1563 1564 1565 1566 1567 1567 1567 1568 1569 1569
1475 1478 1480 1483 1485 1488 1490 1492 1493 1495 1498 1501 1505 1510 1514 1518 1522 1526 1530 1533 1537 1540 1542 1545 1547 1549 1551 1553 1555 1556 1558 1559 1561 1562 1563 1564 1565 1565 1566 1566 1566 1566 1567
1475 1477 1479 1481 1484 1486 1488 1490 1492 1493 1496 1498 1502 1507 1511 1515 1519 1523 1527 1531 1534 1537 1540 1543 1545 1547 1549 1551 1553 1555 1556 1558 1559 1560 1561 1562 1563 1564 1564 1565 1565 1565 1565
1475 1477 1478 1480 1482 1484 1486 1487 1489 1491 1493 1496 1500 1504 1509 1513 1517 1521 1525 1529 1532 1535 1538 1540 1543 1545 1547 1549 1551 1552 1554 1556 1557 1558 1559 1560 1561 1562 1563 1563 1563 1563 1563
1474 1477 1478 1479 1481 1482 1484 1485 1487 1489 1491 1494 1498 1502 1506 1510 1514 1519 1523 1527 1530 1533 1535 1538 1541 1543 1545 1547 1548 1550 1552 1553 1555 1556 1557 1558 1559 1560 1560 1561 1561 1562 1561
1474 1476 1478 1479 1480 1481 1483 1485 1486 1488 1490 1493 1496 1500 1504 1508 1512 1516 1520 1524 1527 1530 1533 1535 1538 1540 1542 1544 1546 1547 1549 1551 1552 1553 1554 1555 1556 1557 1558 1558 1559 1559 1559
1472 1475 1477 1478 1479 1481 1482 1484 1485 1486 1489 1491 1494 1498 1501 1506 1510 1514 1518 1521 1524 1527 1530 1533 1535 1538 1540 1542 1544 1545 1546 1548 1549 1550 1551 1552 1553 1554 1555 1555 1556 1556 1556
1473 1474 1476 1477 1479 1480 1481 1483 1484 1486 1488 1490 1493 1496 1499 1504 1507 1511 1514 1518 1521 1524 1527 1530 1532 1535 1537 1539 1541 1542 1544 1545 1546 1547 1548 1549 1550 1551 1552 1552 1552 1553 1553
1474 1475 1476 1477 1478 1479 1481 1483 1484 1486 1488 1491 1493 1496 1498 1502 1505 1508 1512 1515 1518 1521 1524 1527 1530 1532 1534 1536 1538 1540 1541 1542 1543 1544 1545 1546 1547 1548 1548 1549 1549 1549 1549
1474 1475 1476 1477 1478 1480 1482 1483 1485 1487 1489 1491 1493 1495 1498 1500 1504 1507 1509 1512 1515 1518 1521 1524 1527 1529 1531 1533 1535 1537 1538 1539 1540 1541 1542 1543 1544 1544 1545 1545 1545 1545 1546
1474 1475 1476 1477 1479 1481 1482 1484 1486 1487 1489 1491 1493 1495 1497 1500 1502 1505 1507 1510 1512 1515 1518 1522 1524 1526 1529 1530 1532 1533 1535 1535 1537 1538 1538 1539 1540 1540 1541 1541 1541 1542 1541
1472 1474 1475 1477 1479 1481 1482 1483 1485 1487 1489 1491 1492 1494 1496 1499 1501 1503 1506 1508 1510 1513 1516 1518 1521 1523 1525 1527 1529 1530 1531 1532 1533 1534 1535 1536 1536 1536 1537 1537 1537 1537 1537
1472 1473 1474 1476 1478 1480 1481 1482 1484 1487 1489 1491 1492 1494 1496 1498 1500 1503 1505 1507 1509 1511 1514 1516 1519 1521 1523 1524 1526 1527 1528 1528 1529 1530 1531 1532 1532 1532 1533 1533 1533 1533 1533
1472 1474 1475 1476 1478 1479 1481 1483 1485 1486 1488 1490 1492 1494 1496 1498 1500 1502 1504 1506 1508 1511 1513 1515 1517 1518 1520 1522 1523 1524 1525 1525 1526 1527 1528 1528 1529 1529 1529 1528 1528 1528 1528
1473 1474 1475 1476 1477 1479 1481 1483 1485 1486 1488 1490 1492 1494 1496 1497 1499 1501 1503 1505 1508 1509 1511 1513 1515 1517 1518 1519 1520 1521 1522 1522 1523 1524 1524 1525 1525 1525 1525 1524 1524 1524 1523
1473 1474 1475 1476 1478 1479 1481 1482 1484 1486 1488 1490 1493 1495 1496 1498 1499 1501 1503 1505 1508 1509 1510 1512 1514 1515 1516 1517 1517 1517 1518 1519 1519 1521 1521 1522 1522 1522 1521 1521 1520 1519 1519
1473 1474 1475 1477 1478 1480 1482 1483 1484 1486 1488 1491 1493 1495 1496 1498 1500 1502 1504 1506 1508 1508 1510 1511 1513 1513 1514 1515 1515 1515 1516 1516 1517 1518 1519 1519 1519 1518 1518 1517 1517 1516 1515
1473 1474 1476 1478 1479 1481 1482 1483 1485 1486 1489 1491 1493 1495 1497 1498 1500 1502 1504 1506 1507 1509 1510 1511 1512 1513 1514 1514 1514 1514 1515 1515 1516 1516 1516 1516 1516 1516 1515 1515 1514 1513 1512
1475 1476 1477 1478 1480 1482 1482 1483 1486 1488 1489 1491 1493 1495 1497 1499 1501 1502 1504 1506 1507 1509 1510 1512 1512 1513 1514 1514 1514 1514 1514 1514 1514 1514 1514 1514 1514 1514 1513 1512 1511 1510 1509
1478 1478 1479 1480 1481 1483 1485 1486 1487 1489 1490 1492 1494 1496 1498 1499 1501 1503 1505 1507 1508 1510 1511 1512 1513 1513 1514 1514 1514 1514 1514 1513 1513 1513 1513 1513 1512 1512 1511 1510 1510 1509 1508
1481 1481 1481 1482 1484 1486 1487 1488 1490 1490 1491 1493 1495 1497 1499 1501 1503 1504 1506 1508 1510 1512 1512 1513 1514 1514 1514 1514 1514 1514 1513 1513 1513 1512 1512 1511 1511 1511 1510 1509 1508 1507 1506
1483 1485 1485 1486 1487 1488 1489 1491 1492 1493 1493 1495 1497 1499 1501 1503 1505 1506 1508 1510 1512 1513 1514 1515 1515 1515 1515 1515 1515 1514 1513 1513 1513 1513 1512 1511 1511 1510 1509 1508 1507 1506 1504